sat.trackr.live / text

‹ back to catalog

STARLINK-32537

NORAD 61923 · 2024-207M

PAYLOAD ACTIVE UNKNOWN

§ Identity

Operator
Country
US
Launch date
2024-11-11
Launch site
AFETR
Launch vehicle
Mass (kg)
RCS (m²)

Purposes: comms

External: N2YO · Heavens-Above · Gunter

§ Orbital elements

Epoch: 2026-05-24T21:49:46.469568Z

Period
94.27 min
Inclination
43.0005°
Eccentricity
0.0000717
Mean motion
15.27582874 rev/d
Perigee alt
482.5 km
Apogee alt
483.5 km
Semi-major
6,861.2 km
B*
3.7011e-4
RAAN
215.2055°
Arg perigee
288.5471°
Mean anomaly
71.5302°
Rev number
8,633

§ Raw data

STARLINK-325371 61923U 24207M   26144.90956562  .00009937  00000+0  37011-3 0  99972 61923  43.0005 215.2055 0000717 288.5471  71.5302 15.27582874 86332

JSON: /api/v1/satellites/61923 · /tle

For live sub-satellite position, see the globe view (requires WebGL).

§ Visibility from observer

Set your observer location to see the next 7 days of passes ≥ 10°. The values pass through the URL so the page stays shareable.

No JS? Fill the form by hand. The geolocation button needs JavaScript.